Flag for Canada Weather past 2 weeks in Happy Valley-Goose Bay, Newfoundland and Labrador, Canada

Now
18 °F

Passing clouds.


Feels Like: 8 °F
Forecast: 2 / 9 °F
Wind: 7 mph from Northwest

Location: Goose

Current Time: Dec 20, 2014 at 2:42:06 AM

Latest Report: Dec 20, 2014 at 2:00 AM


Visibility: 15 mi

Pressure: 30.21 "Hg

Humidity: 62%

Dew point: 7 °F

Location of Happy Valley-Goose BayLocation

Historic Weather in Happy Valley-Goose Bay — Graph

°F

Happy Valley-Goose Bay temperature yesterday

Maximum temperature yesterday: 21 °F (at 8:00 PM)
Minimum temperature yesterday: 7 °F (at 6:00 AM)
Average temperature yesterday: 14 °F

Past Weeks' High & Low Weather Summary

 TemperatureHumidityPressure
High36 °F (Dec 14, 11:00 PM)87% (Dec 14, 8:00 PM)30.83 "Hg (Dec 14, 8:00 PM)
Low-9 °F (Dec 8, 5:00 AM)38% (Dec 8, 6:00 PM)29.55 "Hg (Dec 14, 7:00 PM)
Average12 °F68%30.20 "Hg
* Reported Dec 5 1:00 AM — Dec 20 1:00 AM, Happy Valley-Goose Bay, Weather by CustomWeather, © 2014

Note: Actual official high and low records may vary slightly from our data, if they occured in-between our weather recording intervals... More about our weather records

Advertising

Happy Valley-Goose Bay weather history for previous 24 hours

 ConditionsComfort  
Time TempWeatherWind HumidityBarometerVisibility
1:00 AM
Dec 20
18 °FSnow flurries. Passing clouds.10 mph62%30.19 "Hg15 mi
12:00 AM19 °FSnow flurries. Passing clouds.10 mph63%30.17 "Hg15 mi
11:00 PM
Dec 19
19 °FSnow flurries. Overcast.12 mph63%30.16 "Hg15 mi
10:00 PM19 °FSnow flurries. Overcast.12 mph63%30.14 "Hg15 mi
9:00 PM21 °FSnow flurries. Overcast.12 mph63%30.12 "Hg15 mi
8:00 PM21 °FSnow flurries. Overcast.8 mph63%30.10 "Hg12 mi
7:00 PM19 °FSnow flurries. Overcast.14 mph68%30.07 "Hg12 mi
6:00 PM19 °FSnow flurries. Overcast.17 mph73%30.03 "Hg15 mi
5:00 PM19 °FSnow flurries. Overcast.22 mph73%29.99 "Hg15 mi
4:53 PMN/ASnow flurries.20 mphN/AN/A15 mi
4:00 PM19 °FMostly cloudy.14 mph68%29.96 "Hg15 mi
3:00 PM19 °FLight snow. Overcast.9 mph68%29.93 "Hg15 mi
2:00 PM18 °FLight snow. Mostly cloudy.10 mph68%29.89 "Hg6 mi
1:00 PM16 °FLight snow. Overcast.10 mph67%29.88 "Hg8 mi
12:00 PM12 °FSnow flurries. Overcast.12 mph67%29.88 "Hg15 mi
11:00 AM10 °FSnow flurries. Overcast.13 mph67%29.88 "Hg15 mi
10:00 AM9 °FBroken clouds.8 mph61%29.89 "Hg15 mi
9:00 AM7 °FPassing clouds.7 mph61%29.88 "Hg15 mi
8:00 AM7 °FPassing clouds.12 mph61%29.86 "Hg15 mi
7:00 AM7 °FPassing clouds.3 mph66%29.85 "Hg15 mi
6:00 AM7 °FPassing clouds.3 mph66%29.85 "Hg15 mi
5:00 AM9 °FPassing clouds.5 mph66%29.84 "Hg15 mi
4:00 AM9 °FPassing clouds.No wind72%29.84 "Hg15 mi
3:00 AM10 °FPassing clouds.2 mph79%29.87 "Hg15 mi
2:00 AM10 °FPartly cloudy.3 mph79%29.87 "Hg15 mi
Weather by CustomWeather, © 2014

See weather overviewHow to use our weather pages